Location: Bronschhofen
(47.4788°N, 9.0353°E)
Time: 21:23:57
(UTC+00:00)

USA 290 - Pass Details

Date: 20 May 2022
Orbit: 401 x 408 km, 73.6° (Epoch: 11 June)

Event Time Altitude Azimuth Distance (km) Brightness Sun altitude
Exits shadow 01:50:16 19° 269° (W) 1,047 3.9 -14.6°
Maximum altitude 01:51:27 23° 302° (WNW) 915 3.9 -14.5°
Drops below altitude 10° 01:54:05 10° 357° (N) 1,467 5.8 -14.3°
Sets 01:56:25 0° 13° (NNE) 2,332 7.3 -14.0°
